Flight Track Log - Related Links

Times and Time Zones

All times are in EDT time to prevent confusion due to time zone crossing. See the N638SF flight status page for this flight to view local times or setup timezone preferences in your user account.

Time Position Orientation Groundspeed Altitude Reporting Facility
EDT Latitude Longitude Course Direction KTS MPH feet Rate Location/Type
Fri 02:32:06 PM 31.5750 -97.2186 95° East 256 295 2,100  Level Houston Center
Fri 02:33:08 PM 31.5694 -97.1458 95° East 226 260 5,500 3,532 Climbing Houston Center
Fri 02:34:10 PM 31.5742 -97.0714 86° East 226 260 9,400 3,312 Climbing Houston Center
Fri 02:35:13 PM 31.5769 -96.9908 88° East 240 276 12,400 2,448 Climbing Houston Center
Fri 02:36:15 PM 31.5814 -96.8875 87° East 304 350 14,500 2,032 Climbing Houston Center
Fri 02:37:17 PM 31.5864 -96.7728 87° East 340 391 16,600 1,968 Climbing Houston Center
Fri 02:38:20 PM 31.5922 -96.6489 87° East 369 425 18,600 1,161 Climbing Houston Center
Fri 02:39:21 PM 31.5986 -96.4911 87° East 407 468 19,000 732 Climbing Houston Center
Fri 02:40:23 PM 31.6044 -96.3500 87° East 425 489 20,100 968 Climbing Houston Center
Fri 02:41:25 PM 31.6083 -96.2114 88° East 421 484 21,000 968 Climbing Houston Center
Fri 02:42:27 PM 31.6153 -96.0783 86° East 430 495 22,100 1,355 Climbing Houston Center
Fri 02:43:29 PM 31.6200 -95.9103 88° East 429 494 23,800 1,584 Climbing Houston Center
Fri 02:44:32 PM 31.6250 -95.7700 88° East 430 495 25,400 9,382 Climbing Houston Center
Fri 02:45:19 PM 31.6250 -95.6642 90° East 417 480 41,000 1,570 Climbing Fort Worth Center
Fri 02:46:19 PM 31.6314 -95.5175 87° East 423 487 28,200 -5,600 Descending Fort Worth Center
Fri 02:47:19 PM 31.6375 -95.3808 87° East 423 487 29,800 1,650 Climbing Fort Worth Center
Fri 02:48:19 PM 31.6394 -95.2489 89° East 412 474 31,500 1,650 Climbing Fort Worth Center
Fri 02:49:19 PM 31.6433 -95.1147 88° East 407 468 33,100 1,400 Climbing Fort Worth Center
Fri 02:50:19 PM 31.6469 -94.9756 88° East 407 468 34,300 1,150 Climbing Fort Worth Center
Fri 02:51:19 PM 31.6506 -94.8389 88° East 413 475 35,400 1,050 Climbing Fort Worth Center
Fri 02:52:19 PM 31.6558 -94.6969 87° East 425 489 36,400 933 Climbing Fort Worth Center
Fri 02:52:49 PM 31.6567 -94.6358 89° East 427 491 36,800 978 Climbing Houston Center
Fri 02:53:51 PM 31.6592 -94.4947 89° East 429 494 37,900 1,016 Climbing Houston Center
Fri 02:54:53 PM 31.6622 -94.3536 89° East 430 495 38,900 1,016 Climbing Houston Center
Fri 02:55:55 PM 31.6678 -94.2136 87° East 429 494 40,000 1,016 Climbing Houston Center
Fri 02:56:57 PM 31.6694 -94.0736 89° East 428 493 41,000 484 Climbing Houston Center
Fri 02:57:59 PM 31.6731 -93.9011 89° East 437 503 41,000  Level Houston Center
Fri 02:59:02 PM 31.6753 -93.7536 89° East 447 514 41,000  Level Houston Center
Fri 03:00:04 PM 31.6772 -93.6064 89° East 451 519 41,000  Level Houston Center
Fri 03:01:06 PM 31.6803 -93.4458 89° East 450 518 41,000  Level Houston Center
Fri 03:02:08 PM 31.6825 -93.2992 89° East 450 518 41,000  Level Houston Center
Fri 03:03:10 PM 31.6831 -93.1689 90° East 444 511 41,000  Level Houston Center
Fri 03:04:12 PM 31.6858 -93.0217 89° East 448 516 41,000  Level Houston Center
Fri 03:05:14 PM 31.6875 -92.8461 89° East 448 516 41,000  Level Houston Center
Fri 03:06:16 PM 31.6894 -92.7025 89° East 444 511 41,000 -339 Level Houston Center
Fri 03:07:18 PM 31.6906 -92.5575 89° East 444 511 40,300 -677 Descending Houston Center
Fri 03:08:20 PM 31.6917 -92.4136 89° East 442 509 39,600 -677 Descending Houston Center
Fri 03:09:22 PM 31.6928 -92.2681 89° East 444 511 38,900 -864 Descending Houston Center
Fri 03:10:25 PM 31.6931 -92.1228 90° East 445 512 37,800 -1,344 Descending Houston Center
Fri 03:11:27 PM 31.6931 -91.9517 90° East 458 527 36,100 -1,355 Descending Houston Center
Fri 03:12:29 PM 31.6936 -91.8000 90° East 462 532 35,000 -1,065 Descending Houston Center
Fri 03:13:31 PM 31.6939 -91.6481 90° East 465 535 33,900 -1,210 Descending Houston Center
Fri 03:14:33 PM 31.6933 -91.4956 90° East 466 536 32,500 -1,500 Descending Houston Center
Fri 03:15:35 PM 31.6939 -91.3067 90° East 481 554 30,800 -1,500 Descending Houston Center
Fri 03:16:37 PM 31.6933 -91.1489 90° East 483 556 29,400 -1,500 Descending Houston Center
Fri 03:17:39 PM 31.6914 -90.9825 91° East 491 565 27,700 -1,790 Descending Houston Center
Fri 03:18:41 PM 31.6922 -90.8211 90° East 493 567 25,700 -1,984 Descending Houston Center
Fri 03:19:43 PM 31.6914 -90.6650 90° East 481 554 23,600 -2,064 Descending Houston Center
Fri 03:20:46 PM 31.6894 -90.5183 91° East 452 520 21,400 -1,920 Descending Houston Center
Fri 03:21:23 PM 31.6892 -90.4361 90° East 431 496 20,400 -2,121 Descending Houston Center
Fri 03:22:25 PM 31.6883 -90.2967 90° East 426 490 17,900 -2,468 Descending Houston Center
Fri 03:23:27 PM 31.6872 -90.1303 90° East 425 489 15,300 -2,226 Descending Houston Center
Fri 03:24:29 PM 31.6853 -89.9972 91° East 410 472 13,300 -1,935 Descending Houston Center
Fri 03:25:31 PM 31.6847 -89.8894 90° East 340 391 11,300 -2,129 Descending Houston Center
Fri 03:26:33 PM 31.6825 -89.7881 91° East 318 366 8,900 -2,371 Descending Houston Center
Fri 03:27:35 PM 31.6819 -89.6919 90° East 301 346 6,400 -1,824 Descending Houston Center
Fri 03:28:38 PM 31.6797 -89.5978 92° East 293 337 5,100 -1,248 Descending Houston Center
Fri 03:29:40 PM 31.6781 -89.5022 91° East 285 328 3,800 -1,258 Descending Houston Center

Login

Don't have an account? Register now (free) for customized features, flight alerts, and more!